Regional Weather Roundup
Issued by NWS

Home | Current Version | Previous Version | Graphics & Text | Print | Product List | Glossary On
Versions: 1 2 3 4 5 6 7 8 9 10 11 12 13 14 15 16 17 18 19 20 21 22 23 24 25 26 27 28 29 30 31 32 33 34 35 36 37 38 39 40 41 42 43 44 45 46 47 48 49 50
000
ASUS43 KDTX 302001
RWRMI
MICHIGAN HOURLY REGIONAL WEATHER ROUNDUP
NATIONAL WEATHER SERVICE DETROIT/PONTIAC MI
400 PM EDT SAT AUG 30 2014

NOTE: "FAIR" INDICATES FEW OR NO CLOUDS BELOW 12,000 FEET WITH NO
SIGNIFICANT WEATHER AND/OR OBSTRUCTION TO VISIBILITY.

MIZ047>049-052>055-059>063-066>070-074>076-081>083-302100-
SOUTHEAST LOWER MICHIGAN

CITY           SKY/WX    TMP DP  RH WIND       PRES   REMARKS
ADRIAN         PTSUNNY   85  66  53 SW21G29   29.92F
ALMA           PTSUNNY   78  70  74 S15G21    29.82F
ANN ARBOR      PTSUNNY   84  68  58 SW13G20   29.89F
BAD AXE        CLOUDY    81  71  71 SW14      29.85F
CARO           CLOUDY    80  70  71 S16G22    29.84F
DETROIT CITY   PTSUNNY   86  67  52 SW13G24   29.90F
DETROIT        PTSUNNY   84  66  54 SW24G33   29.91F
FLINT          CLOUDY    84  68  58 S14G22    29.86F
GROSSE ILE     PTSUNNY   81  72  74 S12       29.90F
HILLSDALE      PTSUNNY   84  65  53 SW13G18   29.92F
HOWELL         MOSUNNY   82  69  64 S12G18    29.88F

CITY           SKY/WX    TMP DP  RH WIND       PRES   REMARKS
JACKSON        MOSUNNY   84  68  58 S13G23    29.88F
LAMBERTVILLE   PTSUNNY   84  68  58 SW9G25    29.93F
LANSING        PTSUNNY   81  68  64 SW17G25   29.85F
LAPEER         FAIR      82  67  61 SW10      29.88F
MASON          PTSUNNY   81  69  65 S12G20    29.86F
MONROE         MOSUNNY   84  66  54 SW16G22   29.90F
MT. CLEMENS    PTSUNNY   83  65  54 SW18G25   29.89F
PONTIAC        CLOUDY    82  67  60 S13G25    29.89F
PORT HOPE        N/A     81  69  67 SW9       29.82F
PORT HURON     CLOUDY    81  70  69 S13       29.89F
TRI CITIES     MOSUNNY   82  71  69 S14G22    29.82F
TROY           PTSUNNY   85  65  52 S8G18     29.91F
SAGINAW HB     PTSUNNY   81  70  69 S16       29.82F
$$
MIZ043>046-050>051-056>058-064>065-071>073-077>080-302100-
SOUTHWEST LOWER MICHIGAN

CITY           SKY/WX    TMP DP  RH WIND       PRES   REMARKS
BATTLE CREEK   PTSUNNY   83  69  62 SW20G26   29.87F
BENTON HARBOR  PTSUNNY   83  68  60 SW21G28   29.84F
BIG RAPIDS     CLOUDY    77  69  78 SW17G23   29.80F
COLDWATER      PTSUNNY   85  68  56 SW16G24   29.90S
FREMONT        CLOUDY    77  67  71 SW22G28   29.80F
HOLLAND        MOSUNNY   83  70  64 SW24G39   29.84F
GRAND RAPIDS   PTSUNNY   80  75  84 SW16      29.83F
IONIA          HVY RAIN  72  69  90 W18G25    29.83S VSB 3/4
KALAMAZOO      PTSUNNY   83  68  60 SW22G30   29.86F
LUDINGTON      LGT RAIN  70  68  93 SW15G26   29.79S
MARSHALL       PTSUNNY   82  69  64 SW12G25   29.87F
MOUNT PLEASANT LGT RAIN  74  70  88 SW8       29.80F
MUSKEGON       PTSUNNY   77  68  73 SW22G30   29.81F
SOUTH HAVEN    MOSUNNY   83  70  65 SW16G23   29.84F
$$
MIZ016>042-302100-
NORTHERN LOWER MICHIGAN

CITY           SKY/WX    TMP DP  RH WIND       PRES   REMARKS
ALPENA         PTSUNNY   78  69  73 S12       29.77F
BEAVER ISLAND  CLOUDY    71  68  88 SW13G18   29.75S
BELLAIRE       PTSUNNY   83  65  54 SW9G18    29.73S
CADILLAC       PTSUNNY   75  69  84 SW16G23   29.80S
CHARLEVOIX     PTSUNNY   74  72  92 W7        29.77F
FRANKFORT      PTSUNNY   76  67  72 SW14G22   29.76S
GAYLORD        MOSUNNY   80  67  64 SW10      29.77F
GRAYLING       MOSUNNY   81  69  66 S8G17     29.79F
HARBOR SPRINGS RAIN      74  68  82 W10G16    29.75R
HOUGHTON LAKE  MOSUNNY   78  69  73 S13G24    29.80F
MANISTEE       CLOUDY    75  66  73 SW16G24   29.78S
OSCODA         CLOUDY    79  70  73 S17G23    29.80F
PELLSTON       CLOUDY    76  69  79 W10       29.75S
ROGERS CITY    RAIN      77  70  78 S13       29.77S
TRAVERSE CITY  PTSUNNY   81  65  58 SW8G17    29.73S
$$
MIZ007>008-015-302100-
EASTERN UPPER MICHIGAN

CITY           SKY/WX    TMP DP  RH WIND       PRES   REMARKS
KINROSS        CLOUDY    75  70  83 SW10G16   29.74F
MACKINAC ISLAN CLOUDY    70  69  96 SW10G17   29.75F
NEWBERRY       CLOUDY    69  67  95 SW12G20   29.74S FOG
S. S. MARIE    PTSUNNY   77  69  76 SW13G18   29.74F
$$
MIZ004>006-011>014-085-302100-
CENTRAL UPPER MICHIGAN

CITY           SKY/WX    TMP DP  RH WIND       PRES   REMARKS
MANISTIQUE     CLOUDY    66  66  98 SW5       29.73S FOG
ESCANABA       CLOUDY    66  64  94 N6        29.73S
MENOMINEE      CLOUDY    72  64  78 NW6       29.73S
SAWYER-GWINN   CLOUDY    59  59 100 N9        29.78S
$$
MIZ001>003-009>011-084-302100-
WESTERN UPPER MICHIGAN

CITY           SKY/WX    TMP DP  RH WIND       PRES   REMARKS
IRON MOUNTAIN  LGT RAIN  67  64  90 N9        29.77R FOG
HOUGHTON       CLOUDY    60  55  83 NE9       29.84S
COPPER HARBOR    N/A     57  55  93 N13       29.82S
$$

ABBREVIATIONS USED IN REMARKS
   TC - TEMPERATURE IN CELSIUS
  WCI - WIND CHILL INDEX
   HX - HEAT INDEX
  VSB - VISIBILITY



USA.gov is the U.S. government's official web portal to all federal, state and local government web resources and services.